Погода в Бингёле

Турция     38°53′47″N   40°28′52″E
темп.,
°C
ветер,
м/с
пор.,
м/с
влажн.,
%
обл.,
%
осадки,
мм/ч
давл.,
гПа
погр.,
м
25 июня, сб
сб2500:00+12с3377100 0.3 100938
03:00+11ссв2286100 1.3 100914
06:00+12всв1275100 0.5 100948
09:00+17ююв4658100 0.8 1008824
12:00+18ююв5757100 0.6 10081212
15:00+14ссз2376100 3.8 1008210
18:00+16с336674 0.1 1006419
21:00+12ссз3378100 0.1 100622
26 июня, вс
вс2600:00+11с338095 0.0 100635
03:00+10с33839 0.0 100627
06:00+11ссз33816 0.0 100757
09:00+17зсз115922 0.0 1006748
12:00+20зюз455036 0.9 10051700
15:00+21зюз564033 1.8 10042428
18:00+19з574516 0.0 1005748
21:00+13сз225251 0.0 100822
27 июня, пн
пн2700:00+12сз22585 0.0 100915
03:00+11ссз33664 0.0 100921
06:00+11с33744 0.0 101053
09:00+18ю02460 0.0 1008717
12:00+22ю46325 0.0 10082432
15:00+23ююз56285 0.0 10072703
18:00+22зюз24355 0.0 10071970
21:00+15ссз32520 0.0 100917
28 июня, вт
вт2800:00+14с22540 0.0 100913
03:00+13св22530 0.0 100913
06:00+14св22530 0.0 100913
09:00+20ююв34340 0.0 10081217
12:00+23ю55271 0.0 10082449
15:00+24ю55243 0.0 10062746
18:00+23ююз35313 0.0 1006710
21:00+17в113712 0.0 100811
29 июня, ср
ср2900:00+16всв22401 0.0 100912
03:00+14всв22440 0.0 100810
06:00+15св22490 0.0 100913
09:00+22юв33340 0.0 10071209
12:00+24ю34283 0.0 10062367
15:00+26ю66255 0.0 10052767
18:00+24ююз35321 0.0 10041452
21:00+18вюв12413 0.0 100611